CAPE
0 0 0 0 0 0 0 0 0 0 0 0 0 0 0 0 0 0 4 23 36 26 13 28 12 13 20 11 8 13 18 18 13 10 12 21 27 27 28 26 33 48 44
0 0 0 0 0 0 0 0 0 0 0 0 0 0 0 0 0 0 0 1 14 14 26 37 35 23 17 12 22 40 47 42 43 36 26 18 6 4 5 8 7 16 29
0 0 0 0 0 0 0 0 0 0 0 0 0 0 0 0 0 0 0 0 0 7 32 8 35 33 34 25 30 33 24 19 11 5 15 14 9 6 1 4 11 13 29
0 0 0 0 0 0 0 0 0 0 0 0 0 0 0 0 0 0 0 0 0 0 7 15 18 15 14 16 11 11 7 4 4 4 1 0 1 3 3 5 12 8 14
0 0 0 0 0 0 0 0 0 0 0 0 0 0 0 0 0 0 0 0 0 0 0 0 0 0 0 2 1 2 0 0 0 0 1 2 1 2 4 14 22 16 12
0 0 0 0 0 0 0 0 0 0 0 0 0 0 0 0 0 0 0 0 0 0 0 0 0 0 0 0 0 0 0 0 0 0 0 1 3 5 9 8 7 4 7
0 0 0 0 0 0 0 0 0 0 0 0 0 0 0 0 0 0 0 0 0 0 0 0 0 0 0 0 0 0 0 0 0 0 0 1 2 4 6 5 6 8 7
0 0 0 0 0 0 0 0 0 0 0 0 0 0 0 0 0 0 0 0 0 0 0 0 0 0 0 0 0 0 0 0 0 0 0 1 2 2 5 8 7 7 10
0 0 0 0 0 0 0 0 0 0 0 0 0 0 0 0 0 0 0 0 0 0 0 0 0 0 0 0 0 0 0 0 0 0 0 0 4 5 4 4 6 6 7
0 0 0 0 0 0 0 0 0 0 0 0 0 0 0 0 0 0 0 0 0 0 0 0 0 0 0 0 0 0 0 0 0 0 0 1 3 4 4 3 5 6 10
0 0 0 0 0 0 0 0 0 0 0 0 0 0 0 0 0 0 0 0 0 0 0 0 0 0 0 0 0 0 0 0 0 0 0 1 4 3 3 5 8 8 10
0 0 0 0 0 0 0 0 0 0 0 0 0 0 0 0 0 0 0 0 0 0 0 0 0 0 0 0 0 0 0 0 0 0 0 0 2 1 1 2 5 7 11
0 0 0 0 0 0 0 0 0 0 0 0 0 0 0 0 0 0 0 0 0 0 0 0 0 0 0 0 0 0 0 0 0 0 0 0 0 0 0 2 6 7 8
0 0 0 0 0 0 0 0 0 0 0 0 0 0 0 0 0 0 0 0 0 0 0 0 0 0 0 0 0 0 0 0 0 0 0 0 0 0 0 0 1 3 4
0 0 0 0 0 0 0 0 0 0 0 0 0 0 0 0 0 0 0 0 0 0 0 0 0 0 0 0 0 0 0 0 0 0 0 0 0 0 0 1 6 7 7
0 0 0 0 0 0 0 0 0 0 0 0 0 0 0 0 0 0 0 0 0 0 0 0 0 0 0 0 0 0 0 0 0 0 0 0 0 0 0 3 6 4 8
0 0 0 0 0 0 0 0 0 0 0 0 0 0 0 0 0 0 0 0 0 0 0 0 0 0 0 0 0 0 0 0 0 0 0 0 0 0 0 3 6 8 10
0 0 0 0 0 0 0 0 0 0 0 0 0 0 0 0 0 0 0 0 0 0 0 0 0 0 0 0 0 0 0 0 0 0 0 0 0 0 1 0 6 9 5
0 0 0 0 0 0 0 0 0 0 0 0 0 0 0 0 0 0 0 0 0 0 0 0 0 0 0 0 0 0 0 0 0 0 0 0 0 0 0 0 1 4 0
0 0 0 0 0 0 0 0 0 0 0 0 0 0 0 0 0 0 0 0 0 0 0 0 0 0 0 0 0 0 0 0 0 0 0 0 0 0 0 0 0 0 0
0 0 0 0 0 0 0 0 0 0 0 0 0 0 0 0 0 0 0 0 0 0 0 0 0 0 0 0 0 0 0 0 0 0 0 0 0 0 0 0 0 0 0
0 0 0 0 0 0 0 0 0 0 0 0 0 0 0 0 0 0 0 0 0 0 0 0 0 0 0 0 0 0 0 0 0 0 0 0 0 0 0 0 0 0 0
0 0 0 0 0 0 0 0 0 0 0 0 0 0 0 0 0 0 0 0 0 0 0 0 0 0 0 0 0 0 0 0 0 0 0 0 0 0 0 0 0 0 3
0 0 0 0 0 0 0 0 0 0 0 0 0 0 0 0 0 0 0 0 0 0 0 0 0 0 0 0 0 0 0 0 0 0 0 0 0 0 0 0 0 0 0
0 0 0 0 0 0 0 0 0 0 0 0 0 0 0 0 0 0 0 0 0 0 0 0 0 0 0 0 0 0 0 0 0 0 0 0 0 0 0 0 0 0 0
0 0 0 0 0 0 0 0 0 0 0 0 0 0 0 0 0 0 0 0 0 0 0 0 0 0 0 0 0 0 0 0 0 0 0 0 0 0 0 0 0 0 0
CIN
0 0 0 0 0 0 0 0 0 0 0 0 0 0 0 0 0 0 -24 -21 -3 -2 0 0 -1 0 0 -1 0 0 0 0 0 0 -1 -2 0 0 0 0 0 0 0
0 0 0 0 0 0 0 0 0 0 0 0 0 0 0 0 0 0 0 -8 -8 -2 0 0 0 0 0 0 0 0 0 0 0 0 0 0 0 0 0 0 0 0 0
0 0 0 0 0 0 0 0 0 0 0 0 0 0 0 0 0 0 0 0 0 -30 -1 0 0 0 0 0 0 -1 0 0 0 0 0 0 0 0 0 0 0 0 0
0 0 0 0 0 0 0 0 0 0 0 0 0 0 0 0 0 0 0 0 0 0 -15 -4 -2 -1 -1 0 0 0 0 0 0 0 0 0 0 0 0 0 0 0 0
0 0 0 0 0 0 0 0 0 0 0 0 0 0 0 0 0 0 0 0 0 0 0 0 0 0 0 0 0 0 0 0 0 0 0 0 0 0 0 0 0 0 0
0 0 0 0 0 0 0 0 0 0 0 0 0 0 0 0 0 0 0 0 0 0 0 0 0 0 0 0 0 0 0 0 0 0 0 0 0 0 0 0 0 0 0
0 0 0 0 0 0 0 0 0 0 0 0 0 0 0 0 0 0 0 0 0 0 0 0 0 0 0 0 0 0 0 0 0 0 0 0 0 0 0 0 0 0 0
0 0 0 0 0 0 0 0 0 0 0 0 0 0 0 0 0 0 0 0 0 0 0 0 0 0 0 0 0 0 0 0 0 0 0 0 0 0 0 0 0 0 0
0 0 0 0 0 0 0 0 0 0 0 0 0 0 0 0 0 0 0 0 0 0 0 0 0 0 0 0 0 0 0 0 0 0 0 0 0 0 0 0 0 0 0
0 0 0 0 0 0 0 0 0 0 0 0 0 0 0 0 0 0 0 0 0 0 0 0 0 0 0 0 0 0 0 0 0 0 0 0 0 0 0 0 0 0 0
0 0 0 0 0 0 0 0 0 0 0 0 0 0 0 0 0 0 0 0 0 0 0 0 0 0 0 0 0 0 0 0 0 0 0 0 0 0 0 0 0 0 0
0 0 0 0 0 0 0 0 0 0 0 0 0 0 0 0 0 0 0 0 0 0 0 0 0 0 0 0 0 0 0 0 0 0 0 0 0 0 0 0 0 0 0
0 0 0 0 0 0 0 0 0 0 0 0 0 0 0 0 0 0 0 0 0 0 0 0 0 0 0 0 0 0 0 0 0 0 0 0 0 0 0 0 0 0 0
0 0 0 0 0 0 0 0 0 0 0 0 0 0 0 0 0 0 0 0 0 0 0 0 0 0 0 0 0 0 0 0 0 0 0 0 0 0 0 0 0 0 0
0 0 0 0 0 0 0 0 0 0 0 0 0 0 0 0 0 0 0 0 0 0 0 0 0 0 0 0 0 0 0 0 0 0 0 0 0 0 0 0 0 0 0
0 0 0 0 0 0 0 0 0 0 0 0 0 0 0 0 0 0 0 0 0 0 0 0 0 0 0 0 0 0 0 0 0 0 0 0 0 0 0 0 0 0 0
0 0 0 0 0 0 0 0 0 0 0 0 0 0 0 0 0 0 0 0 0 0 0 0 0 0 0 0 0 0 0 0 0 0 0 0 0 0 0 0 0 0 0
0 0 0 0 0 0 0 0 0 0 0 0 0 0 0 0 0 0 0 0 0 0 0 0 0 0 0 0 0 0 0 0 0 0 0 0 0 0 0 0 0 0 0
0 0 0 0 0 0 0 0 0 0 0 0 0 0 0 0 0 0 0 0 0 0 0 0 0 0 0 0 0 0 0 0 0 0 0 0 0 0 0 0 0 0 0
0 0 0 0 0 0 0 0 0 0 0 0 0 0 0 0 0 0 0 0 0 0 0 0 0 0 0 0 0 0 0 0 0 0 0 0 0 0 0 0 0 0 0
0 0 0 0 0 0 0 0 0 0 0 0 0 0 0 0 0 0 0 0 0 0 0 0 0 0 0 0 0 0 0 0 0 0 0 0 0 0 0 0 0 0 0
0 0 0 0 0 0 0 0 0 0 0 0 0 0 0 0 0 0 0 0 0 0 0 0 0 0 0 0 0 0 0 0 0 0 0 0 0 0 0 0 0 0 0
0 0 0 0 0 0 0 0 0 0 0 0 0 0 0 0 0 0 0 0 0 0 0 0 0 0 0 0 0 0 0 0 0 0 0 0 0 0 0 0 0 0 0
0 0 0 0 0 0 0 0 0 0 0 0 0 0 0 0 0 0 0 0 0 0 0 0 0 0 0 0 0 0 0 0 0 0 0 0 0 0 0 0 0 0 0
0 0 0 0 0 0 0 0 0 0 0 0 0 0 0 0 0 0 0 0 0 0 0 0 0 0 0 0 0 0 0 0 0 0 0 0 0 0 0 0 0 0 0
0 0 0 0 0 0 0 0 0 0 0 0 0 0 0 0 0 0 0 0 0 0 0 0 0 0 0 0 0 0 0 0 0 0 0 0 0 0 -2 0 0 0 0
Wind_Speed
9 7 5 7 5 5 6 5 4 4 6 9 7 9 6 7 8 4 3 12 11 13 13 15 14 13 13 13 14 13 13 12 12 11 10 11 13 13 14 14 15 17 16
9 9 8 7 6 6 5 5 5 5 4 9 7 8 7 7 9 7 4 6 11 6 11 15 14 13 14 14 14 13 13 13 13 13 13 12 11 11 11 11 12 15 16
12 12 10 8 8 6 7 5 4 4 5 7 8 6 7 6 7 7 5 5 5 8 9 13 14 14 13 12 12 14 14 12 11 11 12 11 11 11 10 10 11 12 15
15 12 10 10 8 6 7 6 4 5 6 8 7 6 6 6 7 7 6 4 4 4 9 14 13 13 12 12 11 12 10 11 12 11 10 10 10 10 10 10 12 12 12
15 13 11 10 10 7 8 7 3 8 8 7 7 5 4 6 6 6 7 6 6 5 4 14 15 14 13 12 11 11 10 10 10 10 10 10 9 9 9 11 14 14 13
17 14 11 11 10 8 7 6 9 6 9 9 8 6 4 4 5 5 5 6 5 5 5 6 5 6 12 12 11 10 9 9 9 9 9 9 10 10 11 12 13 13 12
16 14 10 11 11 10 10 10 9 12 5 11 7 6 5 4 5 5 4 5 5 5 5 5 4 3 4 12 11 10 9 9 9 9 9 9 10 11 11 11 11 11 11
13 13 13 12 13 10 10 11 11 7 4 10 8 8 3 2 2 1 3 5 6 5 5 5 5 5 4 3 6 9 9 8 8 9 9 9 9 10 10 11 11 11 12
10 12 13 12 11 12 11 13 13 13 12 1 17 7 4 5 3 0 3 4 6 4 4 6 5 5 5 4 5 6 8 8 8 8 8 9 9 10 10 10 10 11 12
6 8 9 10 10 8 11 11 12 11 13 12 2 3 3 6 5 3 1 2 4 5 5 4 5 5 5 3 5 6 7 7 7 8 9 8 9 10 10 10 10 10 11
7 9 10 9 9 6 9 11 9 12 12 10 8 3 3 3 3 4 4 3 2 2 3 5 5 4 5 4 3 3 5 5 6 7 9 8 8 9 10 11 12 11 11
7 9 10 10 10 10 9 9 10 13 12 9 5 4 5 5 4 4 4 3 4 1 2 3 4 4 4 4 4 5 5 5 5 6 8 8 7 9 10 11 11 11 11
6 8 9 9 7 9 9 8 9 10 11 9 8 5 4 3 4 3 4 4 4 1 2 1 2 3 4 4 3 5 5 5 4 7 8 6 7 8 10 12 12 12 12
3 5 9 9 9 7 8 7 7 7 8 7 10 5 4 4 3 4 5 8 4 1 1 3 1 3 3 3 4 7 3 4 4 6 7 7 6 8 9 11 12 12 12
3 4 5 5 6 6 7 8 6 6 7 6 6 6 4 3 3 4 4 10 7 5 4 3 3 3 3 3 5 3 2 4 6 6 6 6 7 7 9 10 10 10 11
9 8 7 7 7 7 7 8 5 6 8 4 4 7 4 3 4 3 3 4 3 5 4 2 1 3 3 3 4 3 1 4 5 6 7 7 8 8 9 9 10 10 13
14 13 14 13 11 9 8 7 6 8 9 8 6 8 6 5 4 4 4 4 4 3 5 2 2 2 2 3 1 1 1 1 2 5 7 8 9 9 9 11 12 13 15
12 14 12 13 13 14 11 11 11 10 11 10 8 9 9 6 6 5 4 6 5 3 5 5 2 2 2 2 2 1 2 2 1 6 9 8 9 9 10 14 13 14 16
14 12 12 13 13 13 14 13 12 12 12 13 13 12 11 10 7 5 5 6 5 4 4 5 3 1 1 1 2 1 1 2 2 6 8 10 10 10 11 16 16 15 16
11 10 12 10 8 10 10 11 12 12 11 10 10 10 11 10 11 9 7 8 6 6 5 5 3 3 2 1 1 1 2 1 2 3 6 6 8 13 15 15 14 15 16
11 11 9 8 9 10 9 12 12 13 14 13 10 11 9 10 13 11 8 6 7 4 4 4 3 2 2 1 2 1 1 2 3 1 2 2 4 4 5 9 11 16 18
12 12 11 10 9 7 14 21 17 11 10 12 12 10 10 15 13 16 14 12 8 6 4 4 3 2 3 3 3 3 2 0 3 1 2 4 2 3 4 3 14 20 21
11 11 11 13 12 9 19 18 18 11 13 12 13 14 11 9 12 11 15 14 10 9 6 5 5 5 4 6 4 3 3 3 3 2 0 4 1 4 3 7 18 18 15
12 11 11 11 11 10 23 23 22 15 12 12 12 13 13 11 10 11 9 7 6 4 5 3 5 5 4 5 4 4 4 2 3 1 1 3 2 3 6 7 17 13 14
9 10 11 12 12 11 24 26 20 14 14 13 10 10 11 10 15 16 9 8 5 3 4 7 7 6 5 3 3 3 2 1 1 1 2 1 2 5 5 7 5 10 18
9 8 10 11 15 15 24 25 20 12 15 11 10 10 15 11 15 13 8 8 6 4 5 4 3 6 5 8 11 5 3 2 1 3 1 2 3 2 4 3 3 5 6
Wind_Direction
171 162 168 160 151 142 151 152 157 137 117 128 118 117 110 108 95 72 54 81 83 102 125 111 112 102 98 94 90 91 85 81 81 72 62 58 58 51 48 38 33 28 26
170 166 163 164 158 157 157 158 154 145 125 135 122 126 124 110 104 95 74 68 72 98 109 112 97 99 99 89 86 81 76 74 70 66 60 52 47 43 39 32 29 27 19
172 168 165 168 168 160 154 153 144 117 114 136 128 132 115 110 108 101 89 74 52 39 95 115 109 103 93 94 85 68 61 60 53 53 49 41 38 32 27 25 34 26 22
171 169 169 171 168 158 162 163 145 122 128 139 134 136 121 113 109 106 95 87 68 45 59 76 82 83 91 75 74 67 65 56 49 44 40 36 32 24 22 21 26 19 12
174 170 173 171 167 163 170 168 146 143 137 139 130 113 107 118 121 114 108 101 90 71 58 82 78 75 79 78 76 72 65 60 52 43 37 32 28 27 25 28 29 23 10
174 170 169 169 173 164 162 155 154 142 136 134 126 98 90 104 117 122 121 116 109 99 91 81 74 83 86 82 74 68 60 57 55 50 41 36 32 25 24 21 19 13 9
171 167 164 165 173 174 173 162 149 140 115 130 109 84 41 45 104 129 134 134 133 131 117 111 100 79 80 84 76 66 59 52 51 47 41 37 30 23 23 21 15 9 8
169 164 159 167 173 165 161 161 149 146 122 159 133 120 120 24 17 123 144 149 148 141 134 132 118 109 99 81 83 73 62 48 41 38 35 30 26 22 19 16 10 5 4
165 164 162 163 169 166 170 169 160 161 161 173 156 136 143 185 138 202 222 159 149 140 131 134 128 126 117 94 72 54 61 48 36 29 28 29 23 15 11 10 4 5 4
163 153 149 155 159 168 169 171 167 164 162 163 118 120 103 136 171 153 237 192 147 148 146 150 140 133 128 117 98 77 55 40 32 21 14 18 22 10 360 358 359 1 359
206 160 160 154 154 159 172 170 165 168 175 167 176 141 102 78 102 134 154 167 82 139 158 152 149 144 148 139 125 66 60 40 23 13 6 6 14 6 357 352 353 355 354
204 171 165 175 170 174 173 177 173 172 176 175 166 147 155 159 169 147 118 134 153 136 147 160 158 160 150 148 150 84 56 38 358 353 350 350 3 1 353 349 347 348 344
215 173 166 175 174 182 180 172 171 174 174 175 171 164 152 155 135 123 117 134 132 129 146 175 195 154 149 149 150 107 44 25 7 342 340 343 351 353 350 343 342 343 343
201 186 182 180 176 168 159 160 165 171 164 169 173 158 147 161 150 144 143 144 108 127 160 161 157 168 149 141 153 108 53 8 357 338 336 335 342 343 344 337 336 337 338
146 154 165 159 160 165 156 157 164 157 161 151 159 148 135 156 165 153 146 161 143 154 186 196 143 156 146 128 130 109 95 351 349 343 330 338 332 339 332 329 328 327 328
184 169 173 166 159 155 158 159 147 142 139 134 137 140 122 123 128 129 142 128 109 129 140 144 150 151 164 135 139 116 64 40 340 346 332 330 331 321 328 322 324 331 328
181 194 189 176 161 160 156 142 141 141 142 140 136 142 131 130 121 113 110 111 111 109 116 108 99 109 112 140 118 93 82 291 319 327 328 329 331 324 322 329 322 330 327
191 193 186 182 173 164 164 160 155 153 148 148 143 134 136 131 119 125 123 118 111 96 117 130 113 132 127 180 160 69 309 295 312 321 316 330 323 321 331 331 325 324 326
189 182 178 178 175 176 171 166 161 160 162 159 157 153 150 142 134 134 113 109 93 86 84 117 120 82 113 111 65 25 315 324 316 313 323 323 324 329 333 325 316 322 324
166 171 177 173 173 164 163 155 153 151 148 151 152 150 150 152 145 133 123 121 118 103 92 101 91 115 113 81 82 98 331 343 305 306 319 342 345 330 326 325 330 325 319
172 166 163 168 161 163 166 161 162 160 155 149 141 130 123 123 128 134 132 131 124 108 121 128 111 105 108 136 167 125 234 280 269 242 328 297 304 309 310 322 323 313 313
163 158 163 163 167 180 178 163 151 151 149 146 134 120 126 126 129 129 125 126 130 139 141 130 109 158 180 178 164 174 195 216 324 242 340 291 236 282 297 308 318 318 313
157 168 163 160 170 169 165 162 150 148 145 144 138 132 129 124 118 118 118 119 125 111 130 133 156 186 174 177 165 184 204 192 231 259 169 273 278 305 303 314 313 320 325
173 166 157 166 164 173 168 161 150 141 131 135 135 135 128 124 127 125 124 120 106 144 131 145 174 172 181 185 180 184 184 198 264 269 91 279 339 289 311 307 307 317 331
164 166 163 156 157 168 168 158 145 132 125 116 113 112 118 122 136 141 125 117 142 140 179 190 185 192 191 145 143 132 127 89 327 276 88 239 286 299 290 293 290 315 327
159 156 158 163 167 164 168 157 146 136 126 123 115 118 135 137 142 139 133 152 151 157 143 92 90 78 77 87 80 77 120 104 48 328 214 348 279 348 306 265 290 299 301